Location: Azul
(36.7830°S, 59.8500°W)
Time: 03:52:17
(UTC-03:00)

Tiangong - Visible Passes

Search period start: 01 December 2023 00:00
Search period end: 11 December 2023 00:00
Orbit: 373 x 384 km, 41.5° (Epoch: 30 November)

Date Brightness Start Highest point End Pass type
(mag) Time Alt. Az. Time Alt. Az. Time Alt. Az.
01 Dec 0.9 02:32:10 13° ESE 02:32:10 13° ESE 02:32:35 10° ESE visible
01 Dec -0.8 04:04:14 17° WSW 04:06:17 37° S 04:09:16 10° ESE visible
02 Dec -0.7 03:05:15 38° SSE 03:05:15 38° SSE 03:07:37 10° ESE visible
02 Dec -0.5 04:38:41 10° WSW 04:41:36 33° S 04:44:31 10° ESE visible
03 Dec -0.6 03:38:17 22° SW 03:39:43 33° S 03:42:38 10° ESE visible
04 Dec 0.3 02:39:13 23° SE 02:39:13 23° SE 02:40:45 10° ESE visible
04 Dec -0.7 04:11:52 10° WSW 04:14:50 37° S 04:17:48 10° ESE visible
05 Dec -0.5 03:12:14 30° SSW 03:12:48 33° S 03:15:43 10° ESE visible
05 Dec -1.8 04:46:37 10° WSW 04:49:46 68° SSE 04:52:54 10° ENE visible
06 Dec 1.1 02:13:17 12° ESE 02:13:17 12° ESE 02:13:36 10° ESE visible
06 Dec -1.1 03:45:22 15° WSW 03:47:43 45° SSE 03:50:47 10° E visible
07 Dec 0.0 02:46:38 27° SE 02:46:38 27° SE 02:48:29 10° ESE visible
07 Dec -2.3 04:19:14 10° WSW 04:22:23 78° NNW 04:25:32 10° ENE visible
08 Dec -1.7 03:20:24 61° SE 03:20:24 61° SE 03:23:20 10° E visible
08 Dec -1.0 04:54:06 10° W 04:56:44 24° NNW 04:59:21 10° NNE visible
09 Dec -1.9 03:54:50 45° NNW 03:54:50 45° NNW 03:57:38 10° NE visible
09 Dec -0.9 21:58:38 10° NW 22:00:24 29° NW 22:00:24 29° NW visible
10 Dec 0.1 04:30:06 11° N 04:30:06 11° N 04:30:29 10° N visible
10 Dec -1.1 20:56:43 10° NNW 20:59:27 27° NNE 21:02:12 10° E visible
10 Dec -0.9 22:32:51 10° W 22:35:03 39° WSW 22:35:03 39° WSW visible
